| time (UTC) | temp F | wind direction | speed knots | gust knots | rain 1hr in | rain 24hr in | rain mn in | humidity % | barometer mb |
| 20260508014011 | 78 | 0 | 0.0 | 5.2 | 0.00 | 0.00 | 0.00 | 54 | 1015.3 |
| 20260508013352 | 79 | 242 | 2.6 | 8.7 | 0.00 | 0.00 | 0.00 | 52 | 1015.4 |
| 20260508012952 | 79 | 248 | 3.5 | 8.7 | 0.00 | 0.00 | 0.00 | 52 | 1015.4 |
| 20260508012552 | 79 | 256 | 3.5 | 7.0 | 0.00 | 0.00 | 0.00 | 53 | 1015.4 |
| 20260508012152 | 79 | 261 | 2.6 | 7.8 | 0.00 | 0.00 | 0.00 | 53 | 1015.4 |
| 20260508011752 | 79 | 240 | 2.6 | 7.8 | 0.00 | 0.00 | 0.00 | 54 | 1015.4 |
| 20260508011352 | 80 | 216 | 4.3 | 9.6 | 0.00 | 0.00 | 0.00 | 52 | 1015.3 |
| 20260508010952 | 80 | 255 | 2.6 | 9.6 | 0.00 | 0.00 | 0.00 | 53 | 1015.4 |
| 20260508010552 | 80 | 235 | 6.1 | 9.6 | 0.00 | 0.00 | 0.00 | 53 | 1015.4 |
| 20260508010152 | 80 | 226 | 3.5 | 8.7 | 0.00 | 0.00 | 0.00 | 54 | 1015.4 |
| 20260508005752 | 80 | 246 | 5.2 | 8.7 | 0.00 | 0.00 | 0.00 | 54 | 1015.4 |
| 20260508005352 | 80 | 230 | 3.5 | 7.8 | 0.00 | 0.00 | 0.00 | 54 | 1015.4 |
| 20260508004952 | 80 | 271 | 2.6 | 9.6 | 0.00 | 0.00 | 0.00 | 55 | 1015.5 |
| 20260508004552 | 81 | 260 | 3.5 | 11.3 | 0.00 | 0.00 | 0.00 | 54 | 1015.5 |
| 20260508004152 | 81 | 229 | 6.1 | 11.3 | 0.00 | 0.00 | 0.00 | 53 | 1015.5 |
| 20260508003752 | 81 | 248 | 5.2 | 9.6 | 0.00 | 0.00 | 0.00 | 53 | 1015.5 |
| 20260508003352 | 81 | 228 | 3.5 | 5.2 | 0.00 | 0.00 | 0.00 | 53 | 1015.5 |
| 20260508002411 | 81 | 231 | 3.5 | 7.0 | 0.00 | 0.00 | 0.00 | 55 | 1015.7 |
| 20260508001611 | 81 | 242 | 3.5 | 7.0 | 0.00 | 0.00 | 0.00 | 54 | 1015.6 |
| 20260508001211 | 81 | 253 | 3.5 | 11.3 | 0.00 | 0.00 | 0.00 | 54 | 1015.8 |
| 20260508000811 | 81 | 229 | 3.5 | 11.3 | 0.00 | 0.00 | 0.00 | 53 | 1015.8 |
| 20260508000412 | 81 | 258 | 6.1 | 9.6 | 0.00 | 0.00 | 0.00 | 54 | 1015.8 |
| 20260507235611 | 82 | 233 | 6.1 | 9.6 | 0.00 | 0.00 | 0.00 | 52 | 1015.9 |
| 20260507235211 | 82 | 237 | 2.6 | 7.0 | 0.00 | 0.00 | 0.00 | 53 | 1015.9 |
| 20260507234732 | 82 | 237 | 3.5 | 7.8 | 0.00 | 0.00 | 0.00 | 54 | 1015.9 |
| 20260507234332 | 82 | 271 | 0.9 | 7.8 | 0.00 | 0.00 | 0.00 | 53 | 1015.9 |
| 20260507233932 | 82 | 265 | 2.6 | 7.8 | 0.00 | 0.00 | 0.00 | 53 | 1015.9 |
| 20260507233532 | 82 | 250 | 2.6 | 7.8 | 0.00 | 0.00 | 0.00 | 55 | 1016.0 |
| 20260507233132 | 82 | 250 | 0.9 | 7.8 | 0.00 | 0.00 | 0.00 | 54 | 1015.9 |
| 20260507232732 | 82 | 259 | 3.5 | 7.8 | 0.00 | 0.00 | 0.00 | 52 | 1016.0 |
| 20260507231932 | 82 | 257 | 2.6 | 7.8 | 0.00 | 0.00 | 0.00 | 52 | 1016.1 |
| 20260507231532 | 82 | 250 | 3.5 | 6.1 | 0.00 | 0.00 | 0.00 | 52 | 1016.1 |
| 20260507231132 | 82 | 338 | 1.7 | 7.0 | 0.00 | 0.00 | 0.00 | 52 | 1016.1 |
| 20260507230732 | 82 | 4 | 0.9 | 7.8 | 0.00 | 0.00 | 0.00 | 54 | 1016.1 |
| 20260507230332 | 81 | 243 | 2.6 | 10.4 | 0.00 | 0.00 | 0.00 | 52 | 1016.2 |
| 20260507225932 | 81 | 254 | 3.5 | 10.4 | 0.00 | 0.00 | 0.00 | 53 | 1016.2 |
| 20260507225532 | 82 | 233 | 2.6 | 10.4 | 0.00 | 0.00 | 0.00 | 52 | 1016.3 |
| 20260507225132 | 82 | 248 | 4.3 | 10.4 | 0.00 | 0.00 | 0.00 | 53 | 1016.3 |
| 20260507224732 | 82 | 244 | 2.6 | 8.7 | 0.00 | 0.00 | 0.00 | 54 | 1016.4 |
| 20260507224332 | 82 | 241 | 0.9 | 10.4 | 0.00 | 0.00 | 0.00 | 52 | 1016.4 |
| 20260507223132 | 82 | 254 | 4.3 | 7.8 | 0.00 | 0.00 | 0.00 | 52 | 1016.6 |
| 20260507222732 | 82 | 229 | 4.3 | 7.8 | 0.00 | 0.00 | 0.00 | 54 | 1016.6 |
| 20260507221932 | 82 | 238 | 2.6 | 7.0 | 0.00 | 0.00 | 0.00 | 51 | 1016.7 |
| 20260507221532 | 82 | 238 | 2.6 | 7.0 | 0.00 | 0.00 | 0.00 | 55 | 1016.7 |
| 20260507221132 | 82 | 246 | 3.5 | 6.1 | 0.00 | 0.00 | 0.00 | 51 | 1016.8 |
| 20260507220732 | 82 | 236 | 1.7 | 6.1 | 0.00 | 0.00 | 0.00 | 52 | 1016.9 |
| 20260507220332 | 81 | 228 | 2.6 | 8.7 | 0.00 | 0.00 | 0.00 | 52 | 1016.9 |
| 20260507215932 | 81 | 258 | 1.7 | 8.7 | 0.00 | 0.00 | 0.00 | 52 | 1017.0 |
| 20260507215532 | 82 | 252 | 5.2 | 8.7 | 0.00 | 0.00 | 0.00 | 51 | 1017.0 |
| 20260507215132 | 82 | 258 | 1.7 | 7.0 | 0.00 | 0.00 | 0.00 | 51 | 1017.1 |
| 20260507214732 | 82 | 267 | 3.5 | 7.0 | 0.00 | 0.00 | 0.00 | 52 | 1017.1 |
| 20260507213932 | 81 | 249 | 4.3 | 8.7 | 0.00 | 0.00 | 0.00 | 53 | 1017.2 |
| 20260507213132 | 81 | 237 | 3.5 | 7.8 | 0.00 | 0.00 | 0.00 | 51 | 1017.2 |
| 20260507212732 | 82 | 295 | 3.5 | 7.0 | 0.00 | 0.00 | 0.00 | 50 | 1017.2 |
| 20260507212332 | 81 | 249 | 4.3 | 7.0 | 0.00 | 0.00 | 0.00 | 53 | 1017.3 |
| 20260507211532 | 81 | 246 | 0.9 | 7.0 | 0.00 | 0.00 | 0.00 | 52 | 1017.3 |
| 20260507210732 | 81 | 241 | 3.5 | 7.8 | 0.00 | 0.00 | 0.00 | 52 | 1017.4 |
| 20260507210332 | 81 | 210 | 2.6 | 7.8 | 0.00 | 0.00 | 0.00 | 52 | 1017.5 |
| 20260507205932 | 81 | 222 | 3.5 | 6.1 | 0.00 | 0.00 | 0.00 | 50 | 1017.6 |
| 20260507205532 | 80 | 311 | 0.9 | 7.0 | 0.00 | 0.00 | 0.00 | 54 | 1017.6 |
| 20260507205132 | 80 | 332 | 0.9 | 7.0 | 0.00 | 0.00 | 0.00 | 53 | 1017.6 |
| 20260507204732 | 80 | 356 | 3.5 | 7.8 | 0.00 | 0.00 | 0.00 | 52 | 1017.6 |
| 20260507204332 | 80 | 244 | 2.6 | 7.8 | 0.00 | 0.00 | 0.00 | 52 | 1017.7 |
| 20260507203932 | 80 | 289 | 0.9 | 6.1 | 0.00 | 0.00 | 0.00 | 53 | 1017.8 |
| 20260507203532 | 80 | 268 | 0.9 | 6.1 | 0.00 | 0.00 | 0.00 | 53 | 1017.8 |
| 20260507203132 | 80 | 262 | 0.9 | 9.6 | 0.00 | 0.00 | 0.00 | 51 | 1017.9 |
| 20260507202732 | 79 | 230 | 1.7 | 11.3 | 0.00 | 0.00 | 0.00 | 53 | 1017.8 |
| 20260507202332 | 79 | 243 | 6.1 | 11.3 | 0.00 | 0.00 | 0.00 | 54 | 1018.0 |
| 20260507201932 | 79 | 240 | 4.3 | 11.3 | 0.00 | 0.00 | 0.00 | 53 | 1018.0 |
| 20260507201132 | 79 | 255 | 5.2 | 9.6 | 0.00 | 0.00 | 0.00 | 54 | 1018.0 |
| 20260507200619 | 79 | 238 | 2.6 | 8.7 | 0.00 | 0.00 | 0.00 | 55 | 1018.0 |
| 20260507195819 | 79 | 205 | 3.5 | 11.3 | 0.00 | 0.00 | 0.00 | 54 | 1018.0 |
| 20260507195419 | 79 | 232 | 7.0 | 11.3 | 0.00 | 0.00 | 0.00 | 51 | 1018.0 |
| 20260507195019 | 79 | 253 | 6.1 | 10.4 | 0.00 | 0.00 | 0.00 | 52 | 1018.0 |
| 20260507194619 | 79 | 239 | 0.9 | 7.8 | 0.00 | 0.00 | 0.00 | 53 | 1018.1 |
| 20260507194219 | 79 | 234 | 2.6 | 8.7 | 0.00 | 0.00 | 0.00 | 54 | 1018.2 |
| 20260507193819 | 79 | 261 | 5.2 | 8.7 | 0.00 | 0.00 | 0.00 | 54 | 1018.1 |
| 20260507193419 | 78 | 243 | 3.5 | 8.7 | 0.00 | 0.00 | 0.00 | 56 | 1018.2 |
| 20260507193019 | 78 | 251 | 4.3 | 8.7 | 0.00 | 0.00 | 0.00 | 54 | 1018.2 |
| 20260507192619 | 79 | 261 | 4.3 | 7.8 | 0.00 | 0.00 | 0.00 | 55 | 1018.3 |
| 20260507192219 | 78 | 287 | 1.7 | 6.1 | 0.00 | 0.00 | 0.00 | 55 | 1018.3 |
| 20260507191819 | 78 | 317 | 0.9 | 3.5 | 0.00 | 0.00 | 0.00 | 56 | 1018.4 |
| 20260507191419 | 78 | 325 | 0.9 | 7.0 | 0.00 | 0.00 | 0.00 | 53 | 1018.4 |
| 20260507190619 | 78 | 205 | 3.5 | 8.7 | 0.00 | 0.00 | 0.00 | 56 | 1018.5 |
| 20260507185819 | 78 | 242 | 4.3 | 8.7 | 0.00 | 0.00 | 0.00 | 55 | 1018.6 |
| 20260507184619 | 77 | 263 | 2.6 | 6.1 | 0.00 | 0.00 | 0.00 | 57 | 1018.8 |
| 20260507183819 | 77 | 262 | 2.6 | 7.8 | 0.00 | 0.00 | 0.00 | 59 | 1018.9 |
| 20260507183419 | 77 | 238 | 3.5 | 7.8 | 0.00 | 0.00 | 0.00 | 60 | 1019.0 |
| 20260507183019 | 76 | 226 | 4.3 | 7.0 | 0.00 | 0.00 | 0.00 | 60 | 1019.0 |
| 20260507182219 | 76 | 256 | 2.6 | 8.7 | 0.00 | 0.00 | 0.00 | 59 | 1019.0 |
| 20260507181819 | 76 | 0 | 0.0 | 3.5 | 0.00 | 0.00 | 0.00 | 57 | 1019.0 |
| 20260507181419 | 76 | 338 | 1.7 | 3.5 | 0.00 | 0.00 | 0.00 | 59 | 1019.1 |
| 20260507180736 | 75 | 339 | 1.7 | 7.8 | 0.00 | 0.00 | 0.00 | 61 | 1019.1 |
| 20260507180336 | 75 | 265 | 2.6 | 5.2 | 0.00 | 0.00 | 0.00 | 60 | 1019.1 |
| 20260507175936 | 75 | 262 | 2.6 | 5.2 | 0.00 | 0.00 | 0.00 | 58 | 1019.1 |
| 20260507174736 | 75 | 250 | 1.7 | 6.1 | 0.00 | 0.00 | 0.00 | 59 | 1019.2 |
| 20260507174336 | 75 | 0 | 0.0 | 3.5 | 0.00 | 0.00 | 0.00 | 58 | 1019.2 |
| 20260507173936 | 74 | 250 | 0.9 | 4.3 | 0.00 | 0.00 | 0.00 | 60 | 1019.2 |
| 20260507173136 | 74 | 247 | 1.7 | 7.0 | 0.00 | 0.00 | 0.00 | 62 | 1019.3 |
| 20260507172736 | 74 | 259 | 1.7 | 3.5 | 0.00 | 0.00 | 0.00 | 62 | 1019.3 |
| 20260507172336 | 74 | 0 | 0.0 | 3.5 | 0.00 | 0.00 | 0.00 | 59 | 1019.3 |
| 20260507170336 | 72 | 258 | 0.9 | 2.6 | 0.00 | 0.00 | 0.00 | 63 | 1018.5 |
| 20260507165936 | 72 | 258 | 0.9 | 2.6 | 0.00 | 0.00 | 0.00 | 63 | 1018.4 |
| 20260507164537 | 70 | 258 | 0.9 | 2.6 | 0.00 | 0.00 | 0.00 | 66 | 1018.5 |
| 20260507163337 | 69 | 0 | 0.0 | 0.0 | 0.00 | 0.00 | 0.00 | 65 | 1018.5 |
| 20260507162649 | 68 | 0 | 0.0 | 0.9 | 0.00 | 0.00 | 0.00 | 67 | 1018.6 |
| 20260507161049 | 66 | 0 | 0.0 | 0.0 | 0.00 | 0.00 | 0.00 | 71 | 1018.6 |
| 20260507160650 | 66 | 0 | 0.0 | 0.0 | 0.00 | 0.00 | 0.00 | 72 | 1018.7 |
| 20260507160249 | 66 | 0 | 0.0 | 0.0 | 0.00 | 0.00 | 0.00 | 71 | 1018.7 |
| 20260507155849 | 65 | 0 | 0.0 | 0.0 | 0.00 | 0.00 | 0.00 | 74 | 1018.7 |
| 20260507155449 | 64 | 0 | 0.0 | 0.0 | 0.00 | 0.00 | 0.00 | 76 | 1018.7 |
| 20260507154650 | 64 | 0 | 0.0 | 0.0 | 0.00 | 0.00 | 0.00 | 77 | 1018.9 |
| 20260507154249 | 64 | 0 | 0.0 | 0.0 | 0.00 | 0.00 | 0.00 | 79 | 1018.9 |
| 20260507153849 | 63 | 0 | 0.0 | 0.0 | 0.00 | 0.00 | 0.00 | 80 | 1019.0 |
| 20260507153450 | 63 | 0 | 0.0 | 0.0 | 0.00 | 0.00 | 0.00 | 79 | 1019.0 |
| 20260507153049 | 62 | 0 | 0.0 | 0.0 | 0.00 | 0.00 | 0.00 | 80 | 1018.9 |
| 20260507151849 | 61 | 0 | 0.0 | 0.0 | 0.00 | 0.00 | 0.00 | 83 | 1019.0 |
| 20260507151449 | 61 | 0 | 0.0 | 0.0 | 0.00 | 0.00 | 0.00 | 84 | 1019.0 |
| 20260507151049 | 60 | 0 | 0.0 | 0.0 | 0.00 | 0.00 | 0.00 | 88 | 1019.0 |
| 20260507150649 | 59 | 0 | 0.0 | 0.0 | 0.00 | 0.00 | 0.00 | 90 | 1019.1 |
| 20260507150249 | 58 | 0 | 0.0 | 0.0 | 0.00 | 0.00 | 0.00 | 90 | 1019.2 |
| 20260507145849 | 58 | 0 | 0.0 | 0.0 | 0.00 | 0.00 | 0.00 | 91 | 1019.2 |
| 20260507145449 | 57 | 0 | 0.0 | 0.0 | 0.00 | 0.00 | 0.00 | 92 | 1019.2 |
| 20260507145049 | 57 | 0 | 0.0 | 0.0 | 0.00 | 0.00 | 0.00 | 93 | 1019.2 |
| 20260507144649 | 56 | 0 | 0.0 | 0.0 | 0.00 | 0.00 | 0.00 | 94 | 1019.2 |
| 20260507143849 | 54 | 0 | 0.0 | 0.0 | 0.00 | 0.00 | 0.00 | 94 | 1019.3 |
| 20260507143449 | 53 | 0 | 0.0 | 0.0 | 0.00 | 0.00 | 0.00 | 94 | 1019.2 |
| 20260507143049 | 53 | 0 | 0.0 | 0.0 | 0.00 | 0.00 | 0.00 | 94 | 1019.2 |
| 20260507142649 | 52 | 0 | 0.0 | 0.0 | 0.00 | 0.00 | 0.00 | 94 | 1019.2 |
| 20260507142249 | 52 | 0 | 0.0 | 0.0 | 0.00 | 0.00 | 0.00 | 94 | 1019.1 |
| 20260507141849 | 51 | 0 | 0.0 | 0.0 | 0.00 | 0.00 | 0.00 | 94 | 1019.1 |
| 20260507141449 | 51 | 0 | 0.0 | 0.0 | 0.00 | 0.00 | 0.00 | 94 | 1019.1 |
| 20260507141049 | 51 | 0 | 0.0 | 0.0 | 0.00 | 0.00 | 0.00 | 94 | 1019.1 |
| 20260507140649 | 50 | 0 | 0.0 | 0.0 | 0.00 | 0.00 | 0.00 | 94 | 1019.1 |
| 20260507140249 | 50 | 0 | 0.0 | 0.0 | 0.00 | 0.00 | 0.00 | 94 | 1019.0 |
| 20260507135849 | 50 | 0 | 0.0 | 0.0 | 0.00 | 0.00 | 0.00 | 94 | 1019.1 |
| 20260507135449 | 50 | 0 | 0.0 | 0.0 | 0.00 | 0.00 | 0.00 | 94 | 1019.0 |
| 20260507135049 | 49 | 0 | 0.0 | 0.0 | 0.00 | 0.00 | 0.00 | 93 | 1019.0 |
| 20260507134649 | 49 | 0 | 0.0 | 0.0 | 0.00 | 0.00 | 0.00 | 93 | 1019.0 |
| 20260507134249 | 49 | 0 | 0.0 | 0.0 | 0.00 | 0.00 | 0.00 | 93 | 1019.0 |
| 20260507133450 | 49 | 0 | 0.0 | 0.0 | 0.00 | 0.00 | 0.00 | 93 | 1018.9 |
| 20260507132649 | 49 | 0 | 0.0 | 0.0 | 0.00 | 0.00 | 0.00 | 93 | 1018.9 |
| 20260507132249 | 49 | 0 | 0.0 | 0.0 | 0.00 | 0.00 | 0.00 | 93 | 1018.8 |
| 20260507131849 | 49 | 0 | 0.0 | 0.0 | 0.00 | 0.00 | 0.00 | 93 | 1018.7 |
| 20260507131449 | 49 | 0 | 0.0 | 0.0 | 0.00 | 0.00 | 0.00 | 93 | 1018.7 |
| 20260507131049 | 49 | 0 | 0.0 | 0.0 | 0.00 | 0.00 | 0.00 | 93 | 1018.7 |
| 20260507130649 | 49 | 0 | 0.0 | 0.0 | 0.00 | 0.00 | 0.00 | 93 | 1018.7 |
| 20260507125849 | 49 | 0 | 0.0 | 0.0 | 0.00 | 0.00 | 0.00 | 93 | 1018.7 |
| 20260507125449 | 49 | 0 | 0.0 | 0.0 | 0.00 | 0.00 | 0.00 | 93 | 1018.7 |
| 20260507124649 | 49 | 0 | 0.0 | 0.0 | 0.00 | 0.00 | 0.00 | 93 | 1018.6 |
| 20260507124249 | 49 | 0 | 0.0 | 0.0 | 0.00 | 0.00 | 0.00 | 93 | 1018.6 |
| 20260507123849 | 49 | 0 | 0.0 | 0.0 | 0.00 | 0.00 | 0.00 | 93 | 1018.6 |
| 20260507123449 | 49 | 0 | 0.0 | 0.0 | 0.00 | 0.00 | 0.00 | 93 | 1018.6 |
| 20260507123049 | 49 | 0 | 0.0 | 0.0 | 0.00 | 0.00 | 0.00 | 93 | 1018.6 |
| 20260507122429 | 49 | 0 | 0.0 | 0.0 | 0.00 | 0.00 | 0.00 | 93 | 1018.6 |
| 20260507121630 | 49 | 0 | 0.0 | 0.0 | 0.00 | 0.00 | 0.00 | 93 | 1018.6 |
| 20260507121229 | 49 | 0 | 0.0 | 0.0 | 0.00 | 0.00 | 0.00 | 93 | 1018.6 |
| 20260507120030 | 49 | 0 | 0.0 | 0.0 | 0.00 | 0.00 | 0.00 | 93 | 1018.7 |
| 20260507115630 | 49 | 0 | 0.0 | 0.0 | 0.00 | 0.00 | 0.00 | 93 | 1018.7 |
| 20260507114829 | 49 | 0 | 0.0 | 0.0 | 0.00 | 0.00 | 0.00 | 93 | 1018.6 |
| 20260507113629 | 49 | 0 | 0.0 | 2.6 | 0.00 | 0.00 | 0.00 | 92 | 1018.7 |
| 20260507113231 | 49 | 0 | 0.0 | 2.6 | 0.00 | 0.00 | 0.00 | 92 | 1018.7 |
| 20260507112029 | 50 | 0 | 0.0 | 0.0 | 0.00 | 0.00 | 0.00 | 93 | 1018.7 |
| 20260507111629 | 50 | 0 | 0.0 | 0.0 | 0.00 | 0.00 | 0.00 | 93 | 1018.7 |
| 20260507111229 | 50 | 0 | 0.0 | 0.0 | 0.00 | 0.00 | 0.00 | 92 | 1018.7 |
| 20260507110430 | 50 | 0 | 0.0 | 0.0 | 0.00 | 0.00 | 0.00 | 92 | 1018.7 |
| 20260507105629 | 50 | 0 | 0.0 | 0.0 | 0.00 | 0.00 | 0.00 | 92 | 1018.7 |
| 20260507105229 | 50 | 0 | 0.0 | 0.0 | 0.00 | 0.00 | 0.00 | 92 | 1018.6 |
| 20260507104338 | 50 | 0 | 0.0 | 0.0 | 0.00 | 0.00 | 0.00 | 92 | 1018.6 |
| 20260507103938 | 50 | 0 | 0.0 | 0.0 | 0.00 | 0.00 | 0.00 | 92 | 1018.7 |
| 20260507103538 | 50 | 0 | 0.0 | 0.0 | 0.00 | 0.00 | 0.00 | 92 | 1018.7 |
| 20260507103138 | 51 | 0 | 0.0 | 0.0 | 0.00 | 0.00 | 0.00 | 92 | 1018.7 |
| 20260507102738 | 50 | 0 | 0.0 | 0.0 | 0.00 | 0.00 | 0.00 | 92 | 1018.8 |
| 20260507102338 | 51 | 0 | 0.0 | 0.0 | 0.00 | 0.00 | 0.00 | 92 | 1018.8 |
| 20260507101938 | 51 | 0 | 0.0 | 0.0 | 0.00 | 0.00 | 0.00 | 92 | 1018.8 |
| 20260507101538 | 51 | 0 | 0.0 | 0.0 | 0.00 | 0.00 | 0.00 | 92 | 1018.8 |
| 20260507100738 | 51 | 0 | 0.0 | 0.0 | 0.00 | 0.00 | 0.00 | 92 | 1018.8 |
| 20260507100338 | 51 | 0 | 0.0 | 0.0 | 0.00 | 0.00 | 0.00 | 92 | 1018.8 |
| 20260507095938 | 51 | 0 | 0.0 | 0.0 | 0.00 | 0.00 | 0.00 | 92 | 1018.8 |
| 20260507095538 | 51 | 0 | 0.0 | 0.0 | 0.00 | 0.00 | 0.00 | 92 | 1018.8 |
| 20260507095138 | 51 | 0 | 0.0 | 0.0 | 0.00 | 0.00 | 0.00 | 92 | 1018.8 |
| 20260507094338 | 51 | 0 | 0.0 | 0.0 | 0.00 | 0.00 | 0.00 | 92 | 1018.8 |
| 20260507093938 | 51 | 0 | 0.0 | 0.0 | 0.00 | 0.00 | 0.00 | 92 | 1018.8 |
| 20260507093538 | 51 | 0 | 0.0 | 0.0 | 0.00 | 0.00 | 0.00 | 92 | 1018.8 |
| 20260507093138 | 51 | 0 | 0.0 | 0.0 | 0.00 | 0.00 | 0.00 | 92 | 1018.9 |
| 20260507092738 | 51 | 0 | 0.0 | 0.0 | 0.00 | 0.00 | 0.00 | 92 | 1018.8 |
| 20260507092338 | 51 | 0 | 0.0 | 0.0 | 0.00 | 0.00 | 0.00 | 92 | 1018.9 |
| 20260507091538 | 51 | 0 | 0.0 | 0.0 | 0.00 | 0.00 | 0.00 | 91 | 1019.1 |
| 20260507091138 | 51 | 0 | 0.0 | 0.0 | 0.00 | 0.00 | 0.00 | 91 | 1019.1 |
| 20260507090345 | 51 | 0 | 0.0 | 0.0 | 0.00 | 0.00 | 0.00 | 91 | 1019.1 |
| 20260507085545 | 52 | 0 | 0.0 | 0.0 | 0.00 | 0.00 | 0.00 | 91 | 1019.1 |
| 20260507085145 | 52 | 0 | 0.0 | 0.0 | 0.00 | 0.00 | 0.00 | 91 | 1019.1 |
| 20260507084745 | 52 | 0 | 0.0 | 0.0 | 0.00 | 0.00 | 0.00 | 91 | 1019.2 |
| 20260507084345 | 52 | 0 | 0.0 | 0.0 | 0.00 | 0.00 | 0.00 | 91 | 1019.2 |
| 20260507083545 | 52 | 0 | 0.0 | 0.0 | 0.00 | 0.00 | 0.00 | 91 | 1019.1 |
| 20260507082832 | 52 | 0 | 0.0 | 0.0 | 0.00 | 0.00 | 0.00 | 91 | 1019.2 |
| 20260507082431 | 52 | 0 | 0.0 | 0.0 | 0.00 | 0.00 | 0.00 | 90 | 1019.1 |
| 20260507082031 | 52 | 0 | 0.0 | 0.0 | 0.00 | 0.00 | 0.00 | 90 | 1019.2 |
| 20260507081631 | 52 | 0 | 0.0 | 0.0 | 0.00 | 0.00 | 0.00 | 90 | 1019.2 |
| 20260507081232 | 53 | 0 | 0.0 | 0.0 | 0.00 | 0.00 | 0.00 | 90 | 1019.1 |
| 20260507080432 | 53 | 0 | 0.0 | 1.7 | 0.00 | 0.00 | 0.00 | 90 | 1019.1 |
| 20260507080032 | 53 | 0 | 0.0 | 2.6 | 0.00 | 0.00 | 0.00 | 90 | 1019.1 |
| 20260507075631 | 53 | 258 | 0.9 | 2.6 | 0.00 | 0.00 | 0.00 | 90 | 1019.0 |
| 20260507075231 | 53 | 258 | 0.9 | 2.6 | 0.00 | 0.00 | 0.00 | 89 | 1019.1 |
| 20260507074832 | 53 | 0 | 0.0 | 0.0 | 0.00 | 0.00 | 0.00 | 89 | 1019.1 |
| 20260507074431 | 54 | 0 | 0.0 | 0.0 | 0.00 | 0.00 | 0.00 | 90 | 1019.1 |
| 20260507073631 | 54 | 0 | 0.0 | 0.0 | 0.00 | 0.00 | 0.00 | 89 | 1019.1 |
| 20260507073231 | 54 | 0 | 0.0 | 0.0 | 0.00 | 0.00 | 0.00 | 89 | 1019.2 |
| 20260507072832 | 54 | 0 | 0.0 | 0.0 | 0.00 | 0.00 | 0.00 | 89 | 1019.2 |
| 20260507072031 | 54 | 0 | 0.0 | 0.0 | 0.00 | 0.00 | 0.00 | 88 | 1019.2 |
| 20260507071632 | 55 | 0 | 0.0 | 0.0 | 0.00 | 0.00 | 0.00 | 88 | 1019.2 |
| 20260507070431 | 55 | 0 | 0.0 | 0.9 | 0.00 | 0.00 | 0.00 | 87 | 1019.2 |
| 20260507070031 | 55 | 0 | 0.0 | 0.9 | 0.00 | 0.00 | 0.00 | 88 | 1019.3 |
| 20260507065631 | 55 | 0 | 0.0 | 0.9 | 0.00 | 0.00 | 0.00 | 87 | 1019.2 |
| 20260507064832 | 55 | 0 | 0.0 | 2.6 | 0.00 | 0.00 | 0.00 | 87 | 1019.2 |
| 20260507064431 | 56 | 0 | 0.0 | 2.6 | 0.00 | 0.00 | 0.00 | 87 | 1019.2 |
| 20260507064031 | 56 | 258 | 1.7 | 2.6 | 0.00 | 0.00 | 0.00 | 87 | 1019.2 |
| 20260507063631 | 56 | 258 | 1.7 | 2.6 | 0.00 | 0.00 | 0.00 | 86 | 1019.2 |
| 20260507063231 | 56 | 258 | 0.9 | 1.7 | 0.00 | 0.00 | 0.00 | 86 | 1019.2 |
| 20260507062831 | 56 | 258 | 0.9 | 1.7 | 0.00 | 0.00 | 0.00 | 86 | 1019.2 |
| 20260507062431 | 56 | 0 | 0.0 | 2.6 | 0.00 | 0.00 | 0.00 | 86 | 1019.2 |
| 20260507062032 | 57 | 258 | 0.9 | 2.6 | 0.00 | 0.00 | 0.00 | 86 | 1019.1 |
| 20260507061631 | 57 | 258 | 0.9 | 2.6 | 0.00 | 0.00 | 0.00 | 86 | 1019.1 |
| 20260507061231 | 57 | 258 | 0.9 | 2.6 | 0.00 | 0.00 | 0.00 | 86 | 1019.2 |
| 20260507055948 | 57 | 258 | 0.9 | 2.6 | 0.00 | 0.00 | 0.00 | 86 | 1019.3 |
| 20260507055548 | 57 | 0 | 0.0 | 5.2 | 0.00 | 0.00 | 0.00 | 86 | 1019.3 |
| 20260507055148 | 57 | 0 | 0.0 | 5.2 | 0.00 | 0.00 | 0.00 | 86 | 1019.3 |
| 20260507054748 | 56 | 258 | 2.6 | 5.2 | 0.00 | 0.00 | 0.00 | 87 | 1019.2 |
| 20260507054348 | 56 | 0 | 0.0 | 3.5 | 0.00 | 0.00 | 0.00 | 87 | 1019.2 |
| 20260507053948 | 56 | 0 | 0.0 | 3.5 | 0.00 | 0.00 | 0.00 | 87 | 1019.3 |
| 20260507053442 | 56 | 259 | 0.9 | 3.5 | 0.00 | 0.00 | 0.00 | 88 | 1019.3 |
| 20260507053042 | 56 | 259 | 1.7 | 5.2 | 0.00 | 0.00 | 0.00 | 87 | 1019.4 |
| 20260507052642 | 55 | 259 | 0.9 | 5.2 | 0.00 | 0.00 | 0.00 | 87 | 1019.3 |
| 20260507052242 | 55 | 259 | 2.6 | 5.2 | 0.00 | 0.00 | 0.00 | 87 | 1019.2 |
| 20260507051842 | 56 | 259 | 2.6 | 3.5 | 0.00 | 0.00 | 0.00 | 86 | 1019.2 |
| 20260507051442 | 56 | 0 | 0.0 | 0.0 | 0.00 | 0.00 | 0.00 | 86 | 1019.4 |
| 20260507051042 | 56 | 0 | 0.0 | 0.0 | 0.00 | 0.00 | 0.00 | 85 | 1019.4 |
| 20260507050642 | 56 | 0 | 0.0 | 0.0 | 0.00 | 0.00 | 0.00 | 85 | 1019.4 |
| 20260507050242 | 56 | 0 | 0.0 | 0.0 | 0.00 | 0.00 | 0.00 | 85 | 1019.4 |
| 20260507045442 | 57 | 0 | 0.0 | 0.0 | 0.00 | 0.00 | 0.00 | 84 | 1019.4 |
| 20260507045042 | 57 | 0 | 0.0 | 0.0 | 0.00 | 0.00 | 0.00 | 84 | 1019.3 |
| 20260507044642 | 57 | 0 | 0.0 | 0.0 | 0.00 | 0.00 | 0.00 | 84 | 1019.3 |
| 20260507044242 | 57 | 0 | 0.0 | 0.0 | 0.00 | 0.00 | 0.00 | 83 | 1019.3 |
| 20260507043842 | 58 | 0 | 0.0 | 0.0 | 0.00 | 0.00 | 0.00 | 82 | 1019.3 |
| 20260507043117 | 58 | 0 | 0.0 | 0.0 | 0.00 | 0.00 | 0.00 | 82 | 1019.1 |
| 20260507042317 | 59 | 0 | 0.0 | 0.0 | 0.00 | 0.00 | 0.00 | 81 | 1019.1 |
| 20260507041917 | 59 | 0 | 0.0 | 0.9 | 0.00 | 0.00 | 0.00 | 81 | 1019.0 |
| 20260507041517 | 59 | 0 | 0.0 | 1.7 | 0.00 | 0.00 | 0.00 | 80 | 1019.0 |
| 20260507041117 | 60 | 0 | 0.0 | 1.7 | 0.00 | 0.00 | 0.00 | 79 | 1019.0 |
| 20260507040717 | 60 | 0 | 0.0 | 3.5 | 0.00 | 0.00 | 0.00 | 79 | 1018.9 |
| 20260507040317 | 60 | 0 | 0.0 | 3.5 | 0.00 | 0.00 | 0.00 | 78 | 1018.8 |
| 20260507035917 | 60 | 259 | 1.7 | 3.5 | 0.00 | 0.00 | 0.00 | 78 | 1018.8 |
| 20260507035117 | 61 | 259 | 1.7 | 2.6 | 0.00 | 0.00 | 0.00 | 77 | 1018.6 |
| 20260507034611 | 61 | 259 | 1.7 | 3.5 | 0.00 | 0.00 | 0.00 | 77 | 1018.6 |
| 20260507034211 | 61 | 259 | 0.9 | 3.5 | 0.00 | 0.00 | 0.00 | 76 | 1018.7 |
| 20260507033811 | 62 | 259 | 0.9 | 3.5 | 0.00 | 0.00 | 0.00 | 76 | 1018.6 |
| 20260507033411 | 62 | 259 | 1.7 | 3.5 | 0.00 | 0.00 | 0.00 | 75 | 1018.5 |
| 20260507032739 | 62 | 0 | 0.0 | 2.6 | 0.00 | 0.00 | 0.00 | 75 | 1018.5 |
| 20260507032338 | 63 | 0 | 0.0 | 2.6 | 0.00 | 0.00 | 0.00 | 74 | 1018.4 |
| 20260507031938 | 63 | 259 | 0.9 | 2.6 | 0.00 | 0.00 | 0.00 | 74 | 1018.4 |
| 20260507031538 | 63 | 0 | 0.0 | 1.7 | 0.00 | 0.00 | 0.00 | 73 | 1018.4 |
| 20260507031138 | 63 | 0 | 0.0 | 1.7 | 0.00 | 0.00 | 0.00 | 72 | 1018.2 |
| 20260507030700 | 64 | 0 | 0.0 | 2.6 | 0.00 | 0.00 | 0.00 | 71 | 1018.2 |
| 20260507030259 | 64 | 0 | 0.0 | 2.6 | 0.00 | 0.00 | 0.00 | 71 | 1018.2 |
| 20260507025859 | 64 | 0 | 0.0 | 1.7 | 0.00 | 0.00 | 0.00 | 70 | 1018.1 |
| 20260507025459 | 64 | 0 | 0.0 | 2.6 | 0.00 | 0.00 | 0.00 | 70 | 1018.1 |
| 20260507025059 | 65 | 0 | 0.0 | 7.0 | 0.00 | 0.00 | 0.00 | 70 | 1018.0 |
| 20260507024659 | 65 | 0 | 0.0 | 7.0 | 0.00 | 0.00 | 0.00 | 69 | 1018.0 |
| 20260507024259 | 65 | 258 | 0.9 | 7.0 | 0.00 | 0.00 | 0.00 | 69 | 1017.9 |
| 20260507023859 | 65 | 0 | 0.0 | 5.2 | 0.00 | 0.00 | 0.00 | 68 | 1017.8 |
| 20260507023459 | 66 | 0 | 0.0 | 7.0 | 0.00 | 0.00 | 0.00 | 68 | 1017.8 |
| 20260507023059 | 66 | 258 | 1.7 | 7.0 | 0.00 | 0.00 | 0.00 | 68 | 1017.9 |
| 20260507022659 | 66 | 257 | 3.5 | 7.0 | 0.00 | 0.00 | 0.00 | 67 | 1017.8 |
| 20260507022259 | 67 | 257 | 2.6 | 7.0 | 0.00 | 0.00 | 0.00 | 67 | 1017.7 |
| 20260507021859 | 67 | 257 | 0.9 | 7.0 | 0.00 | 0.00 | 0.00 | 67 | 1017.7 |
| 20260507021459 | 67 | 256 | 3.5 | 7.0 | 0.00 | 0.00 | 0.00 | 66 | 1017.7 |
| 20260507021059 | 67 | 255 | 2.6 | 7.0 | 0.00 | 0.00 | 0.00 | 65 | 1017.7 |
| 20260507020659 | 68 | 255 | 2.6 | 7.0 | 0.00 | 0.00 | 0.00 | 65 | 1017.6 |
| 20260507020259 | 68 | 249 | 2.6 | 6.1 | 0.00 | 0.00 | 0.00 | 65 | 1017.6 |
| 20260507015859 | 68 | 250 | 1.7 | 6.1 | 0.00 | 0.00 | 0.00 | 65 | 1017.6 |
| 20260507015459 | 68 | 250 | 2.6 | 7.0 | 0.00 | 0.00 | 0.00 | 65 | 1017.6 |
| 20260507015059 | 69 | 250 | 2.6 | 7.0 | 0.00 | 0.00 | 0.00 | 64 | 1017.5 |
| 20260507014659 | 69 | 254 | 3.5 | 7.0 | 0.00 | 0.00 | 0.00 | 63 | 1017.5 |
| 20260507014259 | 69 | 254 | 4.3 | 7.8 | 0.00 | 0.00 | 0.00 | 62 | 1017.4 |